• In Hungary
  • List of Countries
  • For 7 days
  • Water Temperature
  • Satellite Maps
  • Weather Map
  • News
  • Weather Widgets
  • user-avatar
    Login

    Hourly Weather Førde

    Today, 18 July, Wednesday

    Time Temperature Precipitation Wind Pressure Humidity
    00:00 +14°C° 0.3 mm 1 mps 708 mmHg 83%
    01:00 +14°C° 0.3 mm 1 mps 708 mmHg 84%
    02:00 +14°C° 0.3 mm 1 mps 708 mmHg 85%
    03:00 +14°C° 0.3 mm 1 mps 708 mmHg 85%
    04:00 +15°C° 0.3 mm 1 mps 708 mmHg 84%
    05:00 +16°C° 0.3 mm 1 mps 708 mmHg 82%
    06:00 +16°C° 0.3 mm 1 mps 708 mmHg 80%
    07:00 +18°C° 0.7 mm 1 mps 708 mmHg 77%
    08:00 +18°C° 0.7 mm 2 mps 709 mmHg 73%
    09:00 +19°C° 0.7 mm 2 mps 709 mmHg 69%
    10:00 +18°C° 0.9 mm 3 mps 709 mmHg 71%
    11:00 +18°C° 0.9 mm 3 mps 709 mmHg 73%
    12:00 +18°C° 0.9 mm 3 mps 709 mmHg 74%
    13:00 +18°C° 0.6 mm 3 mps 709 mmHg 77%
    14:00 +17°C° 0.6 mm 3 mps 709 mmHg 80%
    15:00 +16°C° 0.6 mm 3 mps 709 mmHg 82%
    16:00 +16°C° 0.2 mm 3 mps 710 mmHg 84%
    17:00 +15°C° 0.2 mm 2 mps 710 mmHg 85%
    18:00 +14°C° 0.2 mm 2 mps 710 mmHg 87%
    19:00 +13°C° 0.1 mm 2 mps 710 mmHg 90%
    20:00 +12°C° 0.1 mm 2 mps 711 mmHg 93%
    21:00 +11°C° 0.1 mm 1 mps 711 mmHg 96%
    22:00 +11°C° 0 mm 1 mps 711 mmHg 96%
    23:00 +10°C° 0 mm 1 mps 711 mmHg 96%

    Tomorrow, 19 July, Thursday

    Time Temperature Precipitation Wind Pressure Humidity
    00:00 +10°C° 0 mm 1 mps 711 mmHg 97%
    01:00 +10°C° 0 mm 1 mps 712 mmHg 97%
    02:00 +9°C° 0 mm 1 mps 712 mmHg 97%
    03:00 +9°C° 0 mm 1 mps 712 mmHg 97%
    04:00 +10°C° 0 mm 1 mps 712 mmHg 93%
    05:00 +11°C° 0 mm 1 mps 712 mmHg 89%
    06:00 +11°C° 0 mm 0 mps 712 mmHg 86%
    07:00 +14°C° 0 mm 1 mps 712 mmHg 77%
    08:00 +15°C° 0 mm 1 mps 712 mmHg 69%
    09:00 +16°C° 0 mm 1 mps 712 mmHg 60%
    10:00 +18°C° 0 mm 1 mps 712 mmHg 56%
    11:00 +18°C° 0 mm 2 mps 712 mmHg 52%
    12:00 +19°C° 0 mm 2 mps 712 mmHg 48%
    13:00 +19°C° 0 mm 2 mps 712 mmHg 48%
    14:00 +19°C° 0 mm 2 mps 712 mmHg 49%
    15:00 +19°C° 0 mm 2 mps 712 mmHg 49%
    16:00 +19°C° 0 mm 2 mps 711 mmHg 53%
    17:00 +18°C° 0 mm 2 mps 711 mmHg 57%
    18:00 +17°C° 0 mm 2 mps 711 mmHg 60%
    19:00 +15°C° 0 mm 2 mps 711 mmHg 70%
    20:00 +13°C° 0 mm 1 mps 710 mmHg 79%
    21:00 +11°C° 0 mm 1 mps 710 mmHg 89%
    22:00 +11°C° 0 mm 1 mps 710 mmHg 89%
    23:00 +11°C° 0 mm 1 mps 710 mmHg 89%

    Day after tomorrow, 20 July, Friday

    Time Temperature Precipitation Wind Pressure Humidity
    00:00 +11°C° 0 mm 1 mps 710 mmHg 89%
    01:00 +11°C° 0 mm 1 mps 709 mmHg 90%
    02:00 +11°C° 0 mm 1 mps 709 mmHg 90%
    03:00 +11°C° 0 mm 1 mps 709 mmHg 90%
    04:00 +12°C° 0 mm 1 mps 709 mmHg 84%
    05:00 +13°C° 0 mm 1 mps 709 mmHg 78%
    06:00 +14°C° 0 mm 1 mps 709 mmHg 72%
    07:00 +15°C° 0 mm 1 mps 709 mmHg 65%
    08:00 +17°C° 0 mm 2 mps 709 mmHg 59%
    09:00 +18°C° 0 mm 2 mps 709 mmHg 52%
    10:00 +18°C° 0 mm 2 mps 708 mmHg 51%
    11:00 +19°C° 0 mm 3 mps 708 mmHg 50%
    12:00 +19°C° 0 mm 3 mps 708 mmHg 49%
    13:00 +19°C° 0 mm 3 mps 708 mmHg 51%
    14:00 +19°C° 0 mm 3 mps 708 mmHg 53%
    15:00 +19°C° 0 mm 3 mps 708 mmHg 55%
    16:00 +18°C° 0 mm 3 mps 708 mmHg 59%
    17:00 +17°C° 0 mm 2 mps 707 mmHg 63%
    18:00 +16°C° 0 mm 2 mps 707 mmHg 68%
    19:00 +15°C° 0 mm 2 mps 707 mmHg 76%
    20:00 +13°C° 0 mm 1 mps 707 mmHg 84%
    21:00 +12°C° 0 mm 1 mps 707 mmHg 92%
    22:00 +11°C° 0.1 mm 1 mps 707 mmHg 93%
    23:00 +11°C° 0.1 mm 1 mps 706 mmHg 94%

    21 July, Saturday

    Time Temperature Precipitation Wind Pressure Humidity
    00:00 +10°C° 0.1 mm 1 mps 706 mmHg 95%
    01:00 +11°C° 0.2 mm 1 mps 706 mmHg 95%
    02:00 +11°C° 0.2 mm 1 mps 706 mmHg 95%
    03:00 +11°C° 0.2 mm 1 mps 706 mmHg 96%
    04:00 +11°C° 0.2 mm 1 mps 706 mmHg 94%
    05:00 +12°C° 0.2 mm 1 mps 706 mmHg 92%
    06:00 +12°C° 0.2 mm 1 mps 705 mmHg 90%
    07:00 +12°C° 0.2 mm 1 mps 705 mmHg 90%
    08:00 +12°C° 0.2 mm 1 mps 705 mmHg 89%
    09:00 +13°C° 0.2 mm 1 mps 706 mmHg 88%
    10:00 +13°C° 0.2 mm 1 mps 706 mmHg 88%
    11:00 +13°C° 0.2 mm 1 mps 706 mmHg 87%
    12:00 +13°C° 0.2 mm 1 mps 706 mmHg 87%
    13:00 +13°C° 0.2 mm 1 mps 706 mmHg 88%
    14:00 +13°C° 0.2 mm 1 mps 706 mmHg 89%
    15:00 +13°C° 0.2 mm 1 mps 706 mmHg 91%
    16:00 +13°C° 0.1 mm 1 mps 706 mmHg 90%
    17:00 +13°C° 0.1 mm 1 mps 706 mmHg 89%
    18:00 +12°C° 0.1 mm 1 mps 706 mmHg 89%
    19:00 +12°C° 0 mm 1 mps 706 mmHg 91%
    20:00 +11°C° 0 mm 1 mps 706 mmHg 94%
    21:00 +10°C° 0 mm 1 mps 706 mmHg 96%
    22:00 +10°C° 0 mm 1 mps 706 mmHg 97%
    23:00 +9°C° 0 mm 1 mps 706 mmHg 97%

    22 July, Sunday

    Time Temperature Precipitation Wind Pressure Humidity
    00:00 +9°C° 0 mm 1 mps 706 mmHg 97%
    01:00 +9°C° 0 mm 1 mps 706 mmHg 97%
    02:00 +9°C° 0 mm 1 mps 706 mmHg 97%
    03:00 +8°C° 0 mm 1 mps 706 mmHg 97%
    04:00 +9°C° 0 mm 1 mps 706 mmHg 93%
    05:00 +10°C° 0 mm 1 mps 706 mmHg 90%
    06:00 +11°C° 0 mm 1 mps 706 mmHg 86%
    07:00 +12°C° 0 mm 1 mps 706 mmHg 80%
    08:00 +13°C° 0 mm 1 mps 707 mmHg 74%
    09:00 +15°C° 0 mm 1 mps 707 mmHg 68%
    10:00 +15°C° 0 mm 1 mps 707 mmHg 64%
    11:00 +16°C° 0 mm 2 mps 707 mmHg 61%
    12:00 +17°C° 0 mm 2 mps 707 mmHg 57%
    13:00 +17°C° 0 mm 2 mps 706 mmHg 57%
    14:00 +17°C° 0 mm 2 mps 706 mmHg 56%
    15:00 +18°C° 0 mm 3 mps 706 mmHg 56%
    16:00 +17°C° 0 mm 3 mps 706 mmHg 59%
    17:00 +17°C° 0 mm 3 mps 706 mmHg 62%
    18:00 +16°C° 0 mm 2 mps 706 mmHg 65%
    19:00 +14°C° 0 mm 2 mps 706 mmHg 73%
    20:00 +12°C° 0 mm 2 mps 706 mmHg 82%
    21:00 +10°C° 0 mm 2 mps 706 mmHg 90%
    22:00 +10°C° 0.1 mm 3 mps 706 mmHg 89%
    23:00 +10°C° 0.1 mm 3 mps 706 mmHg 89%

    23 July, Monday

    Time Temperature Precipitation Wind Pressure Humidity
    00:00 +10°C° 0.1 mm 4 mps 706 mmHg 88%
    01:00 +10°C° 0.2 mm 4 mps 706 mmHg 87%
    02:00 +11°C° 0.2 mm 4 mps 705 mmHg 86%
    03:00 +11°C° 0.2 mm 4 mps 705 mmHg 86%
    04:00 +11°C° 1.5 mm 4 mps 705 mmHg 87%
    05:00 +11°C° 1.5 mm 4 mps 705 mmHg 88%
    06:00 +11°C° 1.5 mm 4 mps 705 mmHg 89%
    07:00 +11°C° 1.8 mm 4 mps 705 mmHg 91%
    08:00 +11°C° 1.8 mm 3 mps 706 mmHg 93%
    09:00 +11°C° 1.8 mm 3 mps 706 mmHg 94%
    10:00 +12°C° 0.4 mm 3 mps 706 mmHg 94%
    11:00 +12°C° 0.4 mm 3 mps 707 mmHg 94%
    12:00 +13°C° 0.4 mm 2 mps 707 mmHg 94%
    13:00 +13°C° 0 mm 3 mps 707 mmHg 91%
    14:00 +14°C° 0 mm 3 mps 708 mmHg 88%
    15:00 +14°C° 0 mm 3 mps 708 mmHg 85%
    16:00 +14°C° 0 mm 3 mps 708 mmHg 84%
    17:00 +14°C° 0 mm 3 mps 708 mmHg 83%
    18:00 +14°C° 0 mm 3 mps 708 mmHg 82%
    19:00 +14°C° 0 mm 2 mps 708 mmHg 86%
    20:00 +13°C° 0 mm 2 mps 709 mmHg 91%
    21:00 +10°C° 0 mm 2 mps 709 mmHg 96%
    22:00 +10°C° 0 mm 2 mps 709 mmHg 96%
    23:00 +10°C° 0 mm 2 mps 709 mmHg 96%
    Show more